Flag for Colombia Weather past 2 weeks in Barranquilla, Colombia

Now
90 °F

Broken clouds.


Feels Like: 108 °F
Forecast: 82 / 92 °F
Wind: 5 mph from Northeast

Location: Barranquilla / Ernestocortissoz

Current Time: Oct 2, 2014 at 10:32:27 AM

Latest Report: Oct 2, 2014 at 10:00 AM


Visibility: N/A

Pressure: 29.83 "Hg

Humidity: 75%

Dew point: 81 °F

Location of BarranquillaLocation

Historic Weather in Barranquilla — Graph

°F

Barranquilla temperature yesterday

Maximum temperature yesterday: 95 °F (at 1:00 PM)
Minimum temperature yesterday: 79 °F (at 4:00 AM)
Average temperature yesterday: 86 °F

Past Weeks' High & Low Weather Summary

 TemperatureHumidityPressure
High97 °F (Sep 30, 1:00 PM)100% (Sep 18, 12:00 AM)29.96 "Hg (Sep 18, 12:00 AM)
Low72 °F (Sep 26, 10:00 PM)53% (Sep 30, 1:00 PM)29.74 "Hg (Sep 27, 4:00 PM)
Average82 °F87%29.83 "Hg
* Reported Sep 17 9:00 AM — Oct 2 9:00 AM, Barranquilla, Weather by CustomWeather, © 2014

Note: Actual official high and low records may vary slightly from our data, if they occured in-between our weather recording intervals... More about our weather records

Advertising

Barranquilla weather history for previous 24 hours

 ConditionsComfort  
Time TempWeatherWind HumidityBarometerVisibility
9:00 AM
Oct 2
88 °FBroken clouds.5 mph75%29.83 "HgN/A
8:00 AM82 °FFog.5 mph89%29.83 "Hg5 mi
7:00 AM79 °FFog.No wind89%29.81 "Hg4 mi
6:00 AM77 °FBroken clouds.No wind89%29.81 "Hg4 mi
5:00 AM77 °FPassing clouds.No wind89%29.81 "HgN/A
4:00 AM77 °FPassing clouds.No wind94%29.80 "HgN/A
3:00 AM79 °FPassing clouds.6 mph89%29.79 "HgN/A
2:00 AM79 °FPassing clouds.6 mph89%29.79 "HgN/A
1:00 AM82 °FPassing clouds.7 mph94%29.78 "HgN/A
12:00 AM84 °FPassing clouds.No wind89%29.82 "HgN/A
11:00 PM
Oct 1
84 °FPassing clouds.9 mph89%29.82 "HgN/A
10:00 PM84 °FPassing clouds.9 mph89%29.80 "HgN/A
9:00 PM84 °FClear.9 mph89%29.79 "Hg10 mi
8:00 PM84 °FPassing clouds.12 mph89%29.79 "HgN/A
7:00 PM84 °FPassing clouds.7 mph89%29.77 "HgN/A
6:00 PM86 °FPassing clouds.12 mph89%29.76 "HgN/A
5:00 PM88 °FPassing clouds.12 mph79%29.76 "HgN/A
4:00 PM90 °FPassing clouds.12 mph75%29.75 "HgN/A
3:00 PM91 °FPassing clouds.12 mph71%29.76 "HgN/A
2:00 PM93 °FPassing clouds.12 mph71%29.77 "HgN/A
1:00 PM95 °FScattered clouds.5 mph63%29.79 "HgN/A
12:00 PM93 °FScattered clouds.3 mph75%29.81 "HgN/A
11:00 AM91 °FScattered clouds.5 mph75%29.83 "HgN/A
10:00 AM90 °FScattered clouds.10 mph75%29.84 "HgN/A
Weather by CustomWeather, © 2014

See weather overviewHow to use our weather pages